Change the Weather History Date:

Thursday, February 20, 2014

  Actual Average Record
Temperature  
Mean Temperature 29 °F 28 °F  
Max Temperature 39 °F 39 °F 68 °F (1896)
Min Temperature 19 °F 17 °F -29 °F (1918)
Degree Days  
Heating Degree Days 36 37  
Month to date heating degree days 962 765  
Since 1 July heating degree days 5213 5216  
Cooling Degree Days 0 0  
Month to date cooling degree days 0 0  
Year to date cooling degree days 0 0  
Moisture  
Dew Point 15 °F    
Average Humidity 59    
Maximum Humidity 75    
Minimum Humidity 42    
Precipitation  
Precipitation 0.00 in 0.02 in 0.38 in (1920)
Month to date precipitation 0.38 0.32  
Year to date precipitation 1.68 0.83  
Snow  
Snow 0.00 in 0.30 in 3.50 in (1920)
Month to date snowfall 5.7 5.8  
Since 1 July snowfall 47.7 37.6  
Snow Depth 0.00 in    
Sea Level Pressure  
Sea Level Pressure 29.92 in    
Wind  
Wind Speed 16 mph (SW)    
Max Wind Speed 30 mph    
Max Gust Speed 37 mph    
Visibility 10 miles    
Events      
T = Trace of Precipitation, MM = Missing Value Source: NWS Daily Summary

Daily Weather History Graph

Daily Weather History Graph

Search for Another Location

Airport or City:

Trip Planner

Search our weather history database for the weather conditions in past years. The results will help you decide how hot, cold, wet, or windy it might be!

Date:

Astronomy

Feb. 20, 2014 Rise Set
Actual Time 7:22 AM MST 5:57 PM MST
Civil Twilight 6:50 AM MST 6:28 PM MST
Nautical Twilight 6:15 AM MST 7:04 PM MST
Astronomical Twilight 5:39 AM MST 7:39 PM MST
Moon No Moon Rise 9:42 AM MST (2/20)
Length of Visible Light 11h 37m
Length of Day
10h 34m
Waning Gibbous, 70% of the Moon is Illuminated
Feb 20
Waning Gibbous
Feb 22
Last Quarter
Mar 1
New
Mar 8
First Quarter
Mar 16
Full

Hourly Weather History & Observations

Time (MST) Temp. Windchill Dew Point Humidity Pressure Visibility Wind Dir Wind Speed Gust Speed Precip Events Conditions
12:53 AM 28.0 °F 18.6 °F 8.1 °F 43% 29.99 in 10.0 mi West 10.4 mph 18.4 mph N/A   Overcast
1:53 AM 27.0 °F 18.0 °F 10.9 °F 51% 30.01 in 10.0 mi West 9.2 mph - N/A   Overcast
2:53 AM 25.0 °F 14.8 °F 10.0 °F 53% 30.03 in 10.0 mi WSW 10.4 mph - N/A   Mostly Cloudy
3:53 AM 23.0 °F 10.6 °F 10.0 °F 58% 30.04 in 10.0 mi WSW 13.8 mph - N/A   Clear
4:53 AM 21.0 °F 8.6 °F 9.0 °F 60% 30.04 in 10.0 mi SW 12.7 mph - N/A   Clear
5:53 AM 19.9 °F 7.9 °F 10.0 °F 65% 30.06 in 10.0 mi SW 11.5 mph - N/A   Clear
6:53 AM 21.9 °F 9.2 °F 10.9 °F 63% 30.05 in 10.0 mi SW 13.8 mph - N/A   Clear
7:53 AM 25.0 °F 12.6 °F 12.0 °F 58% 30.03 in 10.0 mi SW 15.0 mph - N/A   Clear
8:53 AM 28.0 °F 16.1 °F 12.0 °F 51% 29.99 in 10.0 mi SW 16.1 mph - N/A   Clear
9:53 AM 30.9 °F 19.4 °F 10.9 °F 43% 29.97 in 10.0 mi SW 17.3 mph 25.3 mph N/A   Clear
10:53 AM 32.0 °F 19.5 °F 12.9 °F 45% 29.94 in 10.0 mi SW 21.9 mph 29.9 mph N/A   Partly Cloudy
11:53 AM 32.0 °F 20.5 °F 12.9 °F 45% 29.90 in 10.0 mi SW 18.4 mph - N/A   Mostly Cloudy
12:53 PM 33.1 °F 20.3 °F 14.0 °F 46% 29.87 in 10.0 mi SW 24.2 mph 31.1 mph N/A   Scattered Clouds
1:53 PM 35.1 °F 23.0 °F 15.1 °F 44% 29.83 in 10.0 mi SW 24.2 mph 31.1 mph N/A   Mostly Cloudy
2:53 PM 35.1 °F 23.5 °F 17.1 °F 48% 29.80 in 10.0 mi SW 21.9 mph 28.8 mph N/A   Mostly Cloudy
3:53 PM 36.0 °F 24.7 °F 19.0 °F 50% 29.79 in 10.0 mi WSW 21.9 mph 34.5 mph N/A   Overcast
4:53 PM 36.0 °F 24.4 °F 21.0 °F 55% 29.81 in 10.0 mi WSW 23.0 mph 29.9 mph N/A   Overcast
5:53 PM 30.9 °F 20.7 °F 21.0 °F 67% 29.83 in 10.0 mi WSW 13.8 mph - N/A   Scattered Clouds
6:53 PM 30.9 °F 19.8 °F 23.0 °F 72% 29.83 in 10.0 mi WSW 16.1 mph - N/A   Clear
7:53 PM 30.0 °F 17.9 °F 21.9 °F 72% 29.83 in 10.0 mi WSW 18.4 mph - N/A   Clear
8:53 PM 28.9 °F 18.6 °F 21.0 °F 72% 29.84 in 10.0 mi SW 12.7 mph - N/A   Clear
9:53 PM 28.0 °F 18.1 °F 19.9 °F 72% 29.85 in 10.0 mi WSW 11.5 mph - N/A   Clear
10:53 PM 28.0 °F 18.1 °F 19.9 °F 72% 29.86 in 10.0 mi WSW 11.5 mph - N/A   Clear
11:53 PM 28.9 °F 19.8 °F 19.0 °F 67% 29.86 in 10.0 mi SW 10.4 mph - N/A   Mostly Cloudy